Home   Weather   Kempten   Past weeks

Flag for Germany Past Weather in Kempten, Bavaria, Germany — Yesterday and Last 2 Weeks

Now
46 °F

Cool.


Feels Like: 45 °F
Forecast: 45 / 64 °F
Wind: 3 mph from Southwest

Location: Altenstadt Airport

Current Time: Sep 26, 2016 at 5:45:50 AM

Latest Report: Sep 26, 2016 at 4:20 AM


Visibility: N/A

Pressure: 30.18 "Hg (27.81 "Hg at 673m altitude)

Humidity: 93%

Dew Point: 45 °F

Location of KemptenLocation

Past Weather in Kempten — Graph

°F

Kempten Temperature Yesterday

Maximum temperature yesterday: 70 °F (at 1:20 PM)
Minimum temperature yesterday: 43 °F (at 7:20 AM)
Average temperature yesterday: 55 °F

High & Low Weather Summary for the Past Weeks

 TemperatureHumidityPressure
High79 °F (Sep 12, 3:20 PM)100% (Sep 12, 2:20 AM)30.36 "Hg (Sep 12, 2:20 AM)
Low41 °F (Sep 22, 7:20 AM)34% (Sep 15, 12:20 PM)29.89 "Hg (Sep 15, 3:20 AM)
Average56 °F83%30.08 "Hg
* Reported Sep 11 4:20 AM — Sep 26 4:20 AM, Kempten, Weather by CustomWeather, © 2016

Note: Actual official high and low records may vary slightly from our data, if they occured in-between our weather recording intervals... More about our weather records

Advertising

Kempten Weather History for the Previous 24 Hours

Scroll right to see more
 ConditionsComfort  
Time TempWeatherWind HumidityBarometerVisibility
4:20 AM
Mon, Sep 26
46 °FCool.3 mph93%30.18 "HgN/A
3:20 AM46 °FCool.2 mph87%30.18 "HgN/A
2:20 AM46 °FCool.5 mph93%30.18 "HgN/A
1:20 AM46 °FCool.3 mph93%30.18 "HgN/A
12:20 AM48 °FCool.3 mph87%30.18 "HgN/A
11:20 PM
Sun, Sep 25
48 °FCool.3 mph87%30.21 "HgN/A
10:20 PM52 °FCool.5 mph77%30.18 "HgN/A
9:20 PM52 °FCool.3 mph82%30.18 "HgN/A
8:20 PM54 °FCool.3 mph77%30.18 "HgN/A
7:20 PM59 °FRefreshingly cool.5 mph59%30.18 "HgN/A
6:20 PM61 °FRefreshingly cool.5 mph59%30.15 "HgN/A
5:20 PM68 °FMild.7 mph43%30.15 "HgN/A
4:20 PM68 °FMild.8 mph40%30.12 "HgN/A
3:20 PM70 °FMild.10 mph46%30.15 "HgN/A
2:20 PM70 °FMild.8 mph43%30.15 "HgN/A
1:20 PM70 °FMild.9 mph46%30.15 "HgN/A
12:20 PM66 °FMild.7 mph56%30.18 "HgN/A
11:20 AM64 °FMild.2 mph64%30.18 "HgN/A
10:20 AM59 °FCool.2 mph72%30.18 "HgN/A
9:20 AM52 °FCool.2 mph88%30.18 "HgN/A
8:20 AM46 °FCool.2 mph93%30.18 "HgN/A
7:20 AM43 °FQuite cool.5 mph100%30.18 "HgN/A
6:20 AM45 °FQuite cool.3 mph100%30.18 "HgN/A
5:20 AM45 °FQuite cool.2 mph100%30.18 "HgN/A
Weather by CustomWeather, © 2016

See weather overviewHow to use our weather pages